Regional Weather Roundup
Issued by NWS Northern Indiana

Home | Current Version | Previous Version | Graphics & Text | Print | Product List | Glossary Off
Versions: 1 2 3 4 5 6 7 8 9 10 11 12 13 14 15 16 17 18 19 20 21 22 23 24 25 26 27 28 29 30 31 32 33 34 35 36 37 38 39 40 41 42 43 44 45 46 47 48 49 50

000
ASUS43 KIWX 291600
RWRIWX

KIWX WEATHER ROUNDUP
NATIONAL WEATHER SERVICE NORTHERN INDIANA
1200 PM EDT SUN MAY 29 2016

NOTE: "FAIR" INDICATES FEW OR NO CLOUDS BELOW 12,000 FEET WITH NO
SIGNIFICANT WEATHER AND/OR OBSTRUCTIONS TO VISIBILITY.

* THESE STATIONS ARE NOT UNDER NWS QUALITY CONTROL. THEY ALSO MAY NOT
  REPORT WEATHER SUCH AS PRECIPITATION OR FOG.

INZ001>027-291700-
NORTHERN INDIANA

CITY           SKY/WX    TMP DP  RH WIND       PRES   REMARKS
GARY*          MOSUNNY   81  66  61 SW24      30.02
SOUTH BEND     SUNNY     80  58  46 SW16G22   30.04S
ELKHART*         N/A     81  66  61 MISG      30.05S
GOSHEN         PTSUNNY   79  63  57 SW14      30.04S
ANGOLA*          N/A     82  77  83 SW8       30.04F
FORT WAYNE     PTSUNNY   83  65  54 SW14      30.06S

$$
INZ028>050-291700-
CENTRAL INDIANA

CITY           SKY/WX    TMP DP  RH WIND       PRES   REMARKS
LAFAYETTE      SUNNY     79  60  52 VRB7G18   30.06S
KOKOMO*        PTSUNNY   82  64  54 SW14      30.06F
MUNCIE*        SUNNY     82  65  56 SW10      30.08S
INDIANAPOLIS   MOSUNNY   79  68  69 SW7       30.07F

$$
MIZ043>046-050>051-056>058-064>065-071>073-077>080-291700-
SOUTHWEST LOWER MICHIGAN

CITY           SKY/WX    TMP DP  RH WIND       PRES   REMARKS
BATTLE CREEK   MOSUNNY   77  64  64 SW17      30.04S
BENTON HARBOR  SUNNY     79  58  48 SW14G24   30.02R
COLDWATER*     PTSUNNY   79  64  60 S8        30.04S
HILLSDALE*     MOSUNNY   80  56  43 SW9G16    30.05S
HOLLAND        SUNNY     77  61  57 SW16      30.01S
GRAND RAPIDS   PTSUNNY   80  60  50 SW17      30.00S
KALAMAZOO      PTSUNNY   80  63  55 S16       30.02F
STURGIS*       PTSUNNY   77  64  63 W12G18    30.03F
THREE RIVERS*  FAIR      80  63  56 S12       30.04S

$$
OHZ001>008-015>018-024>025-291700-
NORTHWEST OHIO

CITY           SKY/WX    TMP DP  RH WIND       PRES   REMARKS
DEFIANCE       MOSUNNY   82  65  56 SW14      30.05S
FINDLAY        CLOUDY    80  66  62 SW14      30.06F
TOLEDO EXPRESS CLOUDY    80  66  62 SW8       30.05F
TOLEDO METCALF CLOUDY    81  65  58 SW13      30.06S
LIMA           MOSUNNY   78  67  68 S13       30.08S

$$
AND FOR LAKE MICHIGAN COASTAL AND OPEN LAKE BUOY OBSERVATIONS

STATION/POSITION TEMP    WIND        PRES    VSBY  WAVE
                 AIR SEA DIR/SP/G                  HT/PER
                 (F)     (DEG/KT/KT) (MB)    (MI)  (FT/S)
CALUMET HARBOR    75     200/ 13/ 20 1015.3F
MICHIGAN CITY     73     200/ 12/ 15   N/A
BURNS HARBOR      75     230/ 14/ 21 1016.9R
SAINT JOSEPH      70     180/  9/ 12 1017.3R
SOUTH LAKE BUOY   54 50  160/ 12/ 14 1014.7          1/ 3
4 MI NW BRIDGMAN  65 62  200/  6/  6   N/A           1/ 3
MICHIGAN CITY     64 57  230/  6/  8   N/A           1

$$
&&




USA.gov is the U.S. government's official web portal to all federal, state and local government web resources and services.